| time (UTC) | temp C | wind direction | speed KPH | gust KPH | rain 1hr cm | rain 24hr cm | rain mn cm | humidity % | barometer mb |
| 20260903090525 | 21 | 72 | 3.2 | 6.4 | 0.00 | 0.81 | 0.00 | 99 | 1022.0 |
| 20260903085531 | 21 | 331 | 6.4 | 11.3 | 0.00 | 0.81 | 0.00 | 99 | 1021.3 |
| 20260903084518 | 21 | 173 | 3.2 | 6.4 | 0.00 | 0.81 | 0.00 | 99 | 1021.3 |
| 20260903083522 | 21 | 178 | 4.8 | 6.4 | 0.00 | 0.81 | 0.00 | 99 | 1021.7 |
| 20260903082528 | 20 | 152 | 1.6 | 4.8 | 0.00 | 0.81 | 0.00 | 99 | 1021.4 |
| 20260903081533 | 20 | 178 | 3.2 | 6.4 | 0.00 | 0.81 | 0.00 | 99 | 1021.4 |
| 20260903080540 | 20 | 258 | 3.2 | 8.0 | 0.00 | 0.81 | 0.00 | 99 | 1021.3 |
| 20260903075524 | 20 | 154 | 3.2 | 8.0 | 0.00 | 0.81 | 0.00 | 99 | 1021.4 |
| 20260903074530 | 20 | 139 | 4.8 | 6.4 | 0.00 | 0.81 | 0.00 | 99 | 1021.1 |
| 20260903073517 | 21 | 263 | 6.4 | 11.3 | 0.00 | 0.81 | 0.00 | 99 | 1021.4 |
| 20260903072522 | 20 | 317 | 4.8 | 8.0 | 0.00 | 0.81 | 0.00 | 99 | 1020.4 |
| 20260903071527 | 20 | 0.0 | 0.0 | 0.00 | 0.81 | 0.00 | 99 | 1020.2 | |
| 20260903070532 | 20 | 0.0 | 0.0 | 0.00 | 0.81 | 0.00 | 99 | 1020.1 | |
| 20260903065539 | 20 | 180 | 0.0 | 3.2 | 0.00 | 0.81 | 0.00 | 99 | 1020.1 |
| 20260903064524 | 20 | 191 | 1.6 | 3.2 | 0.00 | 0.81 | 0.00 | 99 | 1020.5 |
| 20260903063529 | 20 | 0.0 | 0.0 | 0.00 | 0.81 | 0.00 | 99 | 1020.3 | |
| 20260903062516 | 20 | 0.0 | 0.0 | 0.00 | 0.81 | 0.00 | 99 | 1020.5 | |
| 20260903061521 | 20 | 0.0 | 0.0 | 0.00 | 0.81 | 0.00 | 99 | 1020.5 | |
| 20260903060526 | 20 | 0.0 | 0.0 | 0.00 | 0.81 | 0.00 | 99 | 1020.5 | |
| 20260903055531 | 20 | 0.0 | 1.6 | 0.00 | 0.81 | 0.00 | 99 | 1020.5 | |
| 20260903054518 | 20 | 0.0 | 0.0 | 0.00 | 0.81 | 0.00 | 99 | 1020.5 | |
| 20260903053524 | 20 | 234 | 1.6 | 3.2 | 0.00 | 0.81 | 0.00 | 99 | 1020.6 |
| 20260903052529 | 20 | 308 | 1.6 | 6.4 | 0.00 | 0.81 | 0.00 | 99 | 1020.6 |
| 20260903051515 | 20 | 295 | 1.6 | 3.2 | 0.00 | 0.81 | 0.00 | 99 | 1020.6 |
| 20260903050520 | 20 | 45 | 0.0 | 1.6 | 0.00 | 0.81 | 0.00 | 99 | 1020.5 |
| 20260903045546 | 20 | 189 | 3.2 | 6.4 | 0.00 | 0.81 | 0.00 | 99 | 1020.9 |
| 20260903044530 | 20 | 0.0 | 0.0 | 0.00 | 0.81 | 0.00 | 99 | 1020.6 | |
| 20260903043517 | 20 | 0.0 | 1.6 | 0.00 | 0.81 | 0.00 | 99 | 1020.4 | |
| 20260903042522 | 20 | 0.0 | 0.0 | 0.00 | 0.81 | 0.00 | 99 | 1020.6 | |
| 20260903041527 | 20 | 0.0 | 0.0 | 0.00 | 0.81 | 0.00 | 99 | 1020.7 | |
| 20260903040532 | 20 | 158 | 0.0 | 3.2 | 0.00 | 0.81 | 0.00 | 99 | 1020.8 |
| 20260903035519 | 20 | 0.0 | 0.0 | 0.00 | 0.81 | 0.81 | 99 | 1020.9 | |
| 20260903034524 | 20 | 0.0 | 0.0 | 0.00 | 0.81 | 0.81 | 99 | 1020.7 | |
| 20260903033548 | 21 | 0.0 | 0.0 | 0.00 | 0.81 | 0.81 | 99 | 1020.8 | |
| 20260903032516 | 21 | 0.0 | 0.0 | 0.00 | 0.81 | 0.81 | 99 | 1021.1 | |
| 20260903031520 | 21 | 0.0 | 0.0 | 0.00 | 0.81 | 0.81 | 99 | 1021.0 | |
| 20260903030525 | 21 | 0.0 | 0.0 | 0.00 | 0.81 | 0.81 | 99 | 1020.8 | |
| 20260903025524 | 21 | 180 | 0.0 | 3.2 | 0.00 | 0.81 | 0.81 | 99 | 1021.1 |
| 20260903024517 | 21 | 0.0 | 0.0 | 0.00 | 0.81 | 0.81 | 99 | 1021.0 | |
| 20260903023522 | 21 | 0.0 | 0.0 | 0.00 | 0.81 | 0.81 | 99 | 1020.6 | |
| 20260903022521 | 21 | 0.0 | 0.0 | 0.00 | 0.81 | 0.81 | 99 | 1020.4 | |
| 20260903021520 | 21 | 0.0 | 0.0 | 0.00 | 0.81 | 0.81 | 99 | 1020.4 | |
| 20260903020559 | 21 | 0.0 | 0.0 | 0.00 | 0.81 | 0.81 | 99 | 1020.4 | |
| 20260903015538 | 21 | 0.0 | 0.0 | 0.00 | 0.81 | 0.81 | 99 | 1020.5 | |
| 20260903014517 | 21 | 135 | 0.0 | 3.2 | 0.00 | 0.81 | 0.81 | 99 | 1020.9 |
| 20260903013516 | 21 | 163 | 1.6 | 3.2 | 0.00 | 0.81 | 0.81 | 99 | 1020.8 |
| 20260903012521 | 21 | 0.0 | 0.0 | 0.00 | 0.81 | 0.81 | 99 | 1020.7 | |
| 20260903011526 | 21 | 0.0 | 0.0 | 0.00 | 0.81 | 0.81 | 99 | 1020.7 | |
| 20260903010531 | 22 | 0.0 | 1.6 | 0.00 | 0.81 | 0.81 | 99 | 1020.6 | |
| 20260903005558 | 22 | 0.0 | 0.0 | 0.00 | 0.81 | 0.81 | 99 | 1020.3 | |
| 20260903004523 | 22 | 0.0 | 0.0 | 0.00 | 0.81 | 0.81 | 99 | 1020.2 | |
| 20260903003548 | 22 | 127 | 1.6 | 3.2 | 0.00 | 0.81 | 0.81 | 99 | 1020.5 |
| 20260903002553 | 22 | 0.0 | 0.0 | 0.00 | 0.81 | 0.81 | 99 | 1020.7 | |
| 20260903001520 | 23 | 0.0 | 1.6 | 0.00 | 0.81 | 0.81 | 99 | 1020.8 | |
| 20260903000524 | 23 | 188 | 0.0 | 3.2 | 0.00 | 0.81 | 0.81 | 99 | 1020.8 |
| 20260902235529 | 23 | 0.0 | 0.0 | 0.00 | 0.81 | 0.81 | 99 | 1020.6 | |
| 20260902234517 | 24 | 315 | 0.0 | 3.2 | 0.00 | 0.81 | 0.81 | 99 | 1020.8 |
| 20260902233521 | 24 | 0.0 | 0.0 | 0.00 | 0.81 | 0.81 | 99 | 1021.0 | |
| 20260902232525 | 24 | 0.0 | 0.0 | 0.00 | 0.81 | 0.81 | 99 | 1021.0 | |
| 20260902231611 | 24 | 0.0 | 0.0 | 0.00 | 0.81 | 0.81 | 99 | 1020.9 | |
| 20260902230538 | 24 | 151 | 3.2 | 6.4 | 0.00 | 0.81 | 0.81 | 99 | 1020.7 |
| 20260902225522 | 25 | 0.0 | 0.0 | 0.00 | 0.81 | 0.81 | 99 | 1020.8 | |
| 20260902224527 | 25 | 0.0 | 0.0 | 0.00 | 0.81 | 0.81 | 98 | 1020.6 | |
| 20260902223553 | 26 | 0.0 | 0.0 | 0.00 | 0.81 | 0.81 | 96 | 1020.5 | |
| 20260902222519 | 26 | 0.0 | 0.0 | 0.00 | 0.81 | 0.81 | 94 | 1020.7 | |
| 20260902221524 | 27 | 0.0 | 0.0 | 0.00 | 0.81 | 0.81 | 90 | 1020.7 | |
| 20260902220530 | 28 | 0.0 | 0.0 | 0.00 | 0.81 | 0.81 | 87 | 1020.7 | |
| 20260902215537 | 30 | 0.0 | 0.0 | 0.00 | 0.81 | 0.81 | 82 | 1020.9 | |
| 20260902214521 | 30 | 279 | 1.6 | 3.2 | 0.00 | 0.81 | 0.81 | 82 | 1021.0 |
| 20260902213526 | 28 | 208 | 1.6 | 4.8 | 0.00 | 0.81 | 0.81 | 89 | 1021.0 |
| 20260902212531 | 28 | 318 | 1.6 | 3.2 | 0.00 | 0.81 | 0.81 | 89 | 1020.9 |
| 20260902211519 | 27 | 198 | 1.6 | 3.2 | 0.00 | 0.81 | 0.81 | 88 | 1020.9 |
| 20260902210523 | 27 | 285 | 3.2 | 3.2 | 0.00 | 0.81 | 0.81 | 89 | 1021.0 |
| 20260902205548 | -17 | 248 | 4.8 | 4.8 | 0.00 | 0.81 | 0.81 | 1021.3 | |
| 20260902204533 | 27 | 270 | 3.2 | 4.8 | 0.00 | 0.81 | 0.81 | 90 | 1021.5 |
| 20260902203520 | 26 | 294 | 3.2 | 4.8 | 0.00 | 0.81 | 0.81 | 93 | 1021.7 |
| 20260902202525 | 26 | 270 | 0.0 | 1.6 | 0.00 | 0.81 | 0.81 | 92 | 1021.4 |
| 20260902201530 | 27 | 1.6 | 3.2 | 0.00 | 0.81 | 0.81 | 96 | 1021.3 | |
| 20260902200516 | 27 | 279 | 3.2 | 6.4 | 0.00 | 0.81 | 0.81 | 89 | 1021.2 |
| 20260902195522 | 27 | 100 | 3.2 | 6.4 | 0.00 | 0.81 | 0.81 | 89 | 1021.1 |
| 20260902194526 | 27 | 307 | 3.2 | 4.8 | 0.00 | 0.81 | 0.81 | 89 | 1021.3 |
| 20260902193531 | 27 | 255 | 3.2 | 4.8 | 0.00 | 0.81 | 0.81 | 88 | 1021.5 |
| 20260902192539 | 27 | 285 | 4.8 | 6.4 | 0.00 | 0.81 | 0.81 | 90 | 1021.6 |
| 20260902191523 | 27 | 264 | 4.8 | 8.0 | 0.00 | 0.81 | 0.81 | 89 | 1021.7 |
| 20260902190529 | 26 | 301 | 3.2 | 6.4 | 0.00 | 0.81 | 0.81 | 89 | 1021.7 |
| 20260902185515 | 26 | 257 | 3.2 | 4.8 | 0.00 | 0.81 | 0.81 | 92 | 1021.7 |
| 20260902184520 | 25 | 233 | 1.6 | 4.8 | 0.00 | 0.81 | 0.81 | 92 | 1021.7 |
| 20260902183525 | 24 | 204 | 1.6 | 3.2 | 0.00 | 0.81 | 0.81 | 97 | 1021.9 |
| 20260902182611 | 23 | 162 | 1.6 | 4.8 | 0.00 | 0.81 | 0.81 | 99 | 1022.1 |
| 20260902181517 | 22 | 194 | 1.6 | 4.8 | 0.05 | 0.81 | 0.81 | 99 | 1022.2 |
| 20260902180522 | 22 | 0.0 | 0.0 | 0.05 | 0.81 | 0.81 | 99 | 1022.4 | |
| 20260902175608 | 21 | 0.0 | 0.0 | 0.10 | 0.81 | 0.81 | 99 | 1022.4 | |
| 20260902174526 | 21 | 0.0 | 1.6 | 0.13 | 0.81 | 0.81 | 99 | 1022.4 | |
| 20260902173539 | 21 | 315 | 0.0 | 3.2 | 0.15 | 0.81 | 0.81 | 99 | 1022.7 |
| 20260902172524 | 21 | 203 | 0.0 | 1.6 | 0.20 | 0.81 | 0.81 | 99 | 1022.8 |
| 20260902171523 | -17 | 0.0 | 0.0 | 0.20 | 0.76 | 0.76 | 1023.0 | ||
| 20260902170516 | 21 | 113 | 0.0 | 3.2 | 0.28 | 0.76 | 0.76 | 99 | 1023.2 |
| 20260902165521 | 21 | 182 | 3.2 | 4.8 | 0.36 | 0.71 | 0.71 | 99 | 1022.9 |
| 20260902164520 | 21 | 98 | 0.0 | 3.2 | 0.69 | 0.69 | 0.69 | 99 | 1023.8 |
| 20260902163518 | 21 | 173 | 3.2 | 4.8 | 0.66 | 0.66 | 0.66 | 99 | 1024.1 |
| 20260902162517 | 21 | 138 | 4.8 | 6.4 | 0.61 | 0.61 | 0.61 | 99 | 1025.0 |
| 20260902161516 | 21 | 240 | 3.2 | 6.4 | 0.56 | 0.56 | 0.56 | 99 | 1025.3 |
| 20260902160515 | 22 | 253 | 1.6 | 4.8 | 0.48 | 0.48 | 0.48 | 99 | 1025.5 |
| 20260902155533 | 22 | 86 | 4.8 | 11.3 | 0.36 | 0.36 | 0.36 | 99 | 1025.8 |
| 20260902154520 | 23 | 260 | 6.4 | 6.4 | 0.00 | 0.00 | 0.00 | 99 | 1024.3 |
| 20260902153524 | 25 | 295 | 8.0 | 12.9 | 0.00 | 0.00 | 0.00 | 99 | 1023.4 |
| 20260902152529 | 26 | 90 | 3.2 | 4.8 | 0.00 | 0.00 | 0.00 | 96 | 1022.9 |
| 20260902151516 | 26 | 303 | 3.2 | 6.4 | 0.00 | 0.00 | 0.00 | 94 | 1022.6 |
| 20260902150521 | 26 | 3.2 | 3.2 | 0.00 | 0.00 | 0.00 | 93 | 1022.5 | |
| 20260902145526 | 26 | 4.8 | 6.4 | 0.00 | 0.00 | 0.00 | 92 | 1022.2 | |
| 20260902144530 | 26 | 332 | 3.2 | 4.8 | 0.00 | 0.00 | 0.00 | 92 | 1022.2 |
| 20260902143518 | 26 | 167 | 3.2 | 4.8 | 0.00 | 0.00 | 0.00 | 93 | 1022.2 |
| 20260902142543 | 26 | 177 | 3.2 | 4.8 | 0.00 | 0.00 | 0.00 | 93 | 1022.4 |
| 20260902141527 | 26 | 90 | 3.2 | 4.8 | 0.00 | 0.00 | 0.00 | 93 | 1022.2 |
| 20260902140532 | 25 | 200 | 1.6 | 3.2 | 0.00 | 0.00 | 0.00 | 95 | 1022.2 |
| 20260902135519 | 25 | 265 | 3.2 | 4.8 | 0.00 | 0.00 | 0.00 | 94 | 1022.2 |
| 20260902134524 | 25 | 134 | 3.2 | 4.8 | 0.00 | 0.00 | 0.00 | 95 | 1022.0 |
| 20260902133529 | 25 | 248 | 0.0 | 3.2 | 0.00 | 0.00 | 0.00 | 96 | 1022.2 |
| 20260902132517 | 24 | 225 | 1.6 | 3.2 | 0.00 | 0.00 | 0.00 | 97 | 1022.3 |
| 20260902131521 | 24 | 217 | 1.6 | 3.2 | 0.00 | 0.00 | 0.00 | 99 | 1022.4 |
| 20260902130526 | 23 | 299 | 1.6 | 3.2 | 0.00 | 0.00 | 0.00 | 99 | 1022.4 |
| 20260902125531 | 23 | 265 | 3.2 | 3.2 | 0.00 | 0.00 | 0.00 | 99 | 1022.2 |
| 20260902124538 | 22 | 0.0 | 0.0 | 0.00 | 0.00 | 0.00 | 99 | 1022.0 | |
| 20260902123523 | 21 | 0.0 | 0.0 | 0.00 | 0.00 | 0.00 | 99 | 1021.9 | |
| 20260902122528 | 21 | 0.0 | 0.0 | 0.00 | 0.00 | 0.00 | 99 | 1021.9 | |
| 20260902121533 | 20 | 0.0 | 0.0 | 0.00 | 0.00 | 0.00 | 99 | 1021.9 | |
| 20260902120520 | 20 | 0.0 | 0.0 | 0.00 | 0.00 | 0.00 | 99 | 1021.9 | |
| 20260902115525 | 20 | 0.0 | 0.0 | 0.00 | 0.00 | 0.00 | 99 | 1021.8 | |
| 20260902114530 | 20 | 0.0 | 0.0 | 0.00 | 0.00 | 0.00 | 99 | 1021.7 | |
| 20260902113516 | 20 | 0.0 | 0.0 | 0.00 | 0.00 | 0.00 | 99 | 1021.7 | |
| 20260902112521 | 20 | 0.0 | 0.0 | 0.00 | 0.00 | 0.00 | 99 | 1021.6 | |
| 20260902111606 | 20 | 0.0 | 0.0 | 0.00 | 0.00 | 0.00 | 99 | 1021.5 | |
| 20260902110531 | 20 | 0.0 | 0.0 | 0.00 | 0.00 | 0.00 | 99 | 1021.5 | |
| 20260902105518 | 20 | 0.0 | 0.0 | 0.00 | 0.00 | 0.00 | 99 | 1021.5 | |
| 20260902104523 | 20 | 0.0 | 0.0 | 0.00 | 0.00 | 0.00 | 99 | 1021.7 | |
| 20260902103528 | 20 | 277 | 0.0 | 3.2 | 0.00 | 0.00 | 0.00 | 99 | 1021.7 |
| 20260902102554 | 20 | 0.0 | 0.0 | 0.00 | 0.00 | 0.00 | 99 | 1021.8 | |
| 20260902101520 | 20 | 0.0 | 0.0 | 0.00 | 0.00 | 0.00 | 99 | 1021.9 | |
| 20260902100525 | 20 | 0.0 | 0.0 | 0.00 | 0.00 | 0.00 | 99 | 1021.9 | |
| 20260902095530 | 20 | 0.0 | 0.0 | 0.00 | 0.00 | 0.00 | 99 | 1021.7 | |
| 20260902094517 | 20 | 0.0 | 0.0 | 0.00 | 0.00 | 0.00 | 99 | 1021.4 | |
| 20260902093521 | 20 | 0.0 | 0.0 | 0.00 | 0.00 | 0.00 | 99 | 1021.5 | |
| 20260902092527 | 20 | 0.0 | 1.6 | 0.00 | 0.00 | 0.00 | 99 | 1021.5 | |
| 20260902091531 | 20 | 268 | 0.0 | 3.2 | 0.00 | 0.00 | 0.00 | 99 | 1021.5 |